Location: La Silve
(44.2414°N, 5.8889°E)
Time: 11:51:04
(UTC+00:00)

H-2A R/B - Pass Details

Date: 01 December 2020
Orbit: 578 x 654 km, 98.5° (Epoch: 25 January)

Event Time Altitude Azimuth Distance (km) Brightness Sun altitude
Rises 17:52:14 0° 360° (N) 2,847 5.3 -19.7°
Reaches altitude 10° 17:54:46 10° 345° (NNW) 1,953 4.7 -20.2°
Maximum altitude 17:57:59 21° 295° (WNW) 1,364 4.4 -20.7°
Drops below altitude 10° 18:01:14 10° 246° (WSW) 1,977 5.7 -21.3°
Sets 18:03:50 0° 230° (SW) 2,893 6.5 -21.8°
